Temperature
20 21 20 20 20 20 20 20 20 20 20 20 20 20 19 19 19 19 19 19 19 19 18 18 18 18 18 18 18 18 18 18 18 18 18 17 17 17 17 17 17 17 17
21 21 21 20 20 20 20 20 20 20 20 19 19 19 19 19 19 19 19 19 19 19 18 18 18 18 18 18 18 18 18 18 18 18 17 17 17 17 17 17 17 17 17
22 21 21 20 20 20 20 20 20 19 19 19 19 19 19 19 19 19 19 19 19 18 18 18 18 18 18 18 18 18 18 18 18 18 17 17 17 17 17 17 17 17 17
22 21 21 20 20 20 20 20 19 19 19 19 19 19 19 19 19 18 18 18 18 18 18 18 18 18 18 18 17 17 17 17 17 17 17 17 17 17 17 17 17 17 17
22 21 21 20 20 20 20 20 19 19 19 19 19 19 19 18 18 18 18 18 18 18 18 18 18 18 18 18 17 17 17 17 17 17 17 17 17 17 17 17 17 17 17
22 21 21 21 20 20 20 19 19 19 19 19 19 18 18 18 18 18 18 18 18 18 18 18 18 18 18 17 17 17 17 17 17 17 17 17 18 17 17 17 17 17 17
21 21 21 21 20 20 20 20 19 19 19 19 18 18 18 18 18 18 18 18 18 18 18 18 18 18 18 17 17 17 17 17 17 17 17 17 17 17 17 17 17 17 17
21 21 21 20 20 20 20 19 19 19 19 19 18 18 18 18 18 18 18 18 18 18 18 18 18 18 17 17 17 17 17 17 17 17 17 17 17 17 17 17 17 17 17
21 21 20 20 20 20 20 20 19 19 19 19 19 18 18 18 18 18 18 18 18 18 18 18 18 18 17 17 17 17 17 17 17 17 17 17 17 17 17 17 17 17 17
21 21 20 20 20 20 20 19 19 19 19 19 18 18 18 18 18 18 18 18 18 18 18 18 18 18 18 17 17 17 17 17 17 17 17 17 17 17 17 17 17 17 17
20 20 20 20 20 20 19 19 19 19 19 19 19 18 18 18 18 18 18 18 18 18 18 18 18 18 18 17 17 17 17 17 17 17 17 17 17 17 17 17 17 17 17
20 20 20 20 20 20 19 19 19 19 19 19 19 18 18 18 18 18 18 18 18 18 18 18 18 18 18 17 17 17 18 18 18 17 17 17 17 17 17 17 17 17 17
20 20 20 20 20 20 19 19 19 19 19 19 18 18 18 18 18 18 18 18 18 18 18 18 18 18 18 18 17 17 18 18 18 17 17 17 17 17 17 17 17 17 17
20 20 20 20 19 19 20 20 19 19 19 19 18 18 18 18 18 18 18 18 18 18 18 18 18 18 18 18 18 18 18 18 18 18 17 17 17 17 17 17 17 17 17
20 20 19 19 19 19 19 19 19 19 19 19 18 18 18 18 18 18 18 18 18 18 18 18 18 18 18 18 17 17 18 18 18 18 18 17 17 17 17 17 17 17 17
20 19 19 19 19 19 19 19 19 19 19 18 18 18 18 18 18 18 18 18 18 18 18 18 18 18 17 17 17 17 17 17 18 17 17 18 17 17 17 17 17 17 17
19 19 19 19 19 19 19 19 19 19 18 18 18 18 18 18 18 18 18 18 18 18 18 18 17 17 17 17 17 17 17 17 17 17 17 17 17 17 17 17 17 17 17
19 19 19 18 18 19 19 19 19 19 19 18 18 18 18 18 18 18 18 18 18 18 17 17 17 17 17 17 17 17 17 17 17 17 17 17 17 17 17 17 17 17 17
20 19 19 19 19 18 18 19 19 19 19 19 18 18 18 18 18 18 18 18 18 18 17 17 17 17 17 17 17 17 17 17 17 17 17 17 17 17 17 17 17 17 17
20 19 19 19 19 18 18 18 18 19 18 18 18 18 18 18 18 18 18 18 18 17 17 17 17 17 17 17 17 17 17 17 17 17 17 17 17 17 17 17 17 17 17
19 19 19 19 19 19 18 18 18 18 18 18 18 18 18 18 18 18 18 18 17 17 17 17 17 17 17 17 17 17 17 17 17 17 17 17 17 17 17 17 17 17 17
19 19 19 19 19 18 18 18 18 18 18 18 18 18 18 18 18 17 17 17 17 17 17 17 17 17 17 17 17 17 17 17 17 17 17 17 17 17 17 17 17 17 17
19 19 19 19 19 18 18 18 18 18 18 18 18 18 18 17 17 17 17 17 17 17 17 17 17 17 17 17 17 17 17 17 17 17 17 17 17 17 17 17 17 17 17
19 19 19 19 18 18 18 18 18 18 18 18 18 18 18 17 17 17 17 17 17 17 17 17 17 17 17 17 17 17 17 18 17 17 17 17 17 17 17 17 17 17 17
19 19 19 18 18 18 18 18 18 18 18 18 18 18 17 17 17 17 17 17 17 17 17 17 17 17 17 17 17 17 17 17 17 18 18 18 18 18 17 17 17 17 17
19 19 18 18 18 18 18 18 18 18 18 18 17 17 17 17 17 17 17 17 17 17 17 17 17 17 17 17 17 17 17 17 17 18 18 18 18 18 18 18 18 17 17
Wind_Speed
11 14 21 21 21 21 20 20 20 19 19 19 19 19 19 18 18 17 17 16 15 14 13 13 13 14 15 16 16 17 18 19 19 19 20 20 20 20 20 20 19 18 20
15 18 22 22 22 21 21 20 20 19 19 18 18 18 17 17 16 16 15 14 14 13 13 13 13 14 14 15 16 17 18 19 19 19 19 19 19 19 19 19 18 17 19
18 18 22 23 23 22 21 21 20 19 18 18 17 17 16 16 16 15 14 14 13 13 13 13 13 13 14 15 15 16 17 18 18 18 16 15 17 18 18 18 18 18 18
18 18 21 24 23 23 22 21 20 19 18 18 17 16 16 15 15 15 14 14 13 13 13 13 13 13 13 14 14 15 15 16 17 16 13 13 15 18 18 18 18 18 17
15 18 22 25 24 23 22 21 20 19 18 17 16 16 16 15 15 15 14 14 13 13 12 12 12 12 12 13 13 13 14 14 15 13 12 13 14 17 17 17 17 17 16
15 17 23 25 24 23 22 21 20 19 18 17 16 16 15 15 14 14 14 14 13 13 12 12 12 12 12 12 12 12 12 13 14 12 13 13 14 16 17 16 16 16 16
15 15 21 24 24 23 22 21 20 19 18 17 16 16 15 15 15 14 14 14 13 12 12 11 11 11 11 11 11 10 10 13 13 12 12 12 14 16 16 16 16 16 15
17 14 19 23 23 23 22 21 20 19 18 17 16 16 15 15 14 14 14 13 12 12 11 10 9 9 9 9 9 9 9 12 12 12 12 12 15 15 15 15 15 15 15
15 13 13 18 20 22 21 21 20 19 18 17 16 16 15 14 14 13 13 12 12 11 10 9 8 8 8 8 8 8 10 12 12 12 12 12 15 15 15 15 14 14 14
13 12 11 13 16 17 18 20 20 19 18 17 16 16 15 14 14 13 12 12 11 10 9 8 7 6 6 6 7 9 11 13 12 11 11 12 15 15 14 14 14 14 13
14 11 10 10 12 14 15 18 19 18 17 16 15 15 14 11 12 11 11 11 11 10 9 7 6 5 4 4 6 9 10 10 10 10 10 14 16 15 14 14 14 14 13
16 13 11 11 10 12 13 14 13 14 14 13 12 12 11 10 10 10 11 11 10 9 8 7 5 4 3 3 5 8 8 10 9 9 11 16 16 15 15 14 14 13 13
18 15 13 12 11 10 7 11 9 9 11 11 11 11 11 9 8 8 8 8 8 8 6 5 4 3 2 3 5 7 8 9 9 9 12 16 16 16 15 14 14 13 13
16 15 13 11 10 9 9 8 8 7 7 7 10 12 9 6 5 6 6 6 6 5 5 4 3 3 3 4 6 7 8 7 9 9 12 16 16 15 15 15 14 13 13
15 14 13 11 10 9 8 7 8 7 8 9 10 11 11 6 4 5 5 6 7 6 5 4 4 3 3 4 6 8 8 9 10 10 11 15 15 15 15 14 14 13 13
16 16 13 12 10 9 9 7 7 7 9 9 9 10 11 9 6 5 4 4 5 7 7 6 5 3 2 3 3 5 7 9 10 10 11 14 15 16 15 15 14 13 13
15 14 13 13 11 11 10 9 7 8 9 7 8 10 11 10 9 6 4 3 4 7 6 4 3 3 2 2 4 4 6 8 9 10 11 12 13 15 15 15 14 14 13
14 14 13 13 11 10 8 7 5 7 8 7 9 9 10 10 10 7 4 3 5 6 5 3 3 2 2 2 3 3 3 6 8 10 11 11 11 12 14 15 15 15 14
15 14 13 11 11 9 8 5 5 5 6 7 8 8 9 9 10 7 4 3 5 4 3 3 3 3 3 3 3 3 3 4 5 8 8 10 12 12 12 14 15 15 15
13 13 12 11 11 9 7 6 4 4 4 5 6 7 9 9 9 8 4 4 5 3 3 3 3 2 2 3 3 2 1 2 3 4 6 9 11 12 13 12 13 14 15
10 11 12 11 9 8 6 6 5 5 4 4 4 8 9 9 8 6 4 4 4 4 4 4 3 3 2 2 3 2 3 1 2 3 4 5 7 11 12 13 13 13 13
12 11 11 11 10 9 7 6 5 5 4 4 3 6 9 9 8 6 5 4 4 4 4 3 3 3 1 2 4 3 2 3 3 2 3 5 5 7 9 12 14 14 14
11 12 12 11 10 10 9 6 5 5 4 3 4 4 5 8 8 7 6 5 4 4 4 3 4 4 2 1 2 4 4 3 2 3 3 4 5 5 5 8 12 14 15
12 11 10 10 10 9 10 9 10 8 6 6 5 5 4 6 7 8 7 6 5 4 4 4 4 3 4 2 1 0 2 4 3 1 3 2 4 6 6 6 9 13 15
10 11 10 10 9 9 9 11 10 7 6 5 5 6 5 4 5 7 8 6 5 4 4 4 4 4 3 3 2 1 2 2 2 3 2 3 3 4 5 6 6 10 14
8 9 9 10 9 9 10 10 10 10 9 9 7 7 5 3 3 5 7 5 5 4 4 5 5 5 4 4 3 2 2 2 1 2 2 3 3 4 4 5 5 7 12
Wind_Direction
151 155 150 143 138 133 129 124 120 116 113 111 110 110 110 110 110 111 111 110 109 107 106 105 106 109 111 113 114 115 117 118 118 118 118 118 118 116 114 113 110 111 112
149 153 149 144 140 136 132 129 125 123 120 117 116 115 114 113 113 114 113 112 111 109 108 108 110 112 115 118 118 118 119 119 120 119 117 118 118 116 116 115 114 116 115
144 149 148 145 141 138 136 133 130 128 126 124 122 120 119 118 117 117 116 115 113 112 111 112 113 115 118 121 123 122 122 121 120 117 112 110 117 119 119 119 117 116 116
142 146 147 145 143 141 139 137 135 133 132 130 128 126 125 123 122 122 120 118 116 114 115 115 115 117 121 123 125 125 125 123 120 117 110 111 118 121 121 120 118 117 117
140 144 148 146 145 143 141 140 139 137 136 134 132 130 129 127 125 124 122 120 119 117 116 117 118 119 122 124 125 126 126 125 125 119 114 113 118 125 124 123 121 120 119
139 144 148 147 146 145 144 142 141 140 140 138 136 133 131 129 127 125 123 121 120 118 117 118 119 121 123 125 126 127 126 125 124 121 120 120 125 129 128 126 125 123 122
139 144 148 147 147 146 146 145 144 143 142 142 140 136 133 131 128 127 126 124 123 122 121 120 121 122 124 125 127 127 128 130 130 129 127 127 132 133 131 129 128 127 126
142 143 147 148 148 148 148 148 148 147 146 145 144 140 138 136 133 131 132 130 128 126 125 124 125 125 126 126 124 124 130 140 138 137 133 134 138 136 135 134 133 132 130
141 142 145 149 151 151 152 152 151 150 150 149 147 145 143 141 139 139 139 137 135 134 132 131 129 128 128 126 125 123 129 138 139 143 143 142 144 143 141 141 139 138 136
143 148 150 151 151 153 155 156 155 154 154 154 152 151 150 149 148 147 146 145 144 143 140 138 136 132 130 126 120 113 123 131 140 142 145 152 151 149 147 146 145 143 142
152 155 155 152 150 151 154 159 158 158 159 159 159 159 156 153 153 155 158 157 155 153 151 148 146 140 130 119 111 112 120 136 143 147 154 161 157 154 153 153 151 148 147
162 165 164 159 157 156 160 156 157 158 161 161 162 160 157 162 169 171 175 170 165 162 162 162 159 154 131 108 109 114 125 142 144 158 166 165 162 159 158 158 155 153 152
166 167 168 165 163 164 155 154 157 158 162 167 171 170 170 176 185 180 178 179 173 172 171 177 171 173 162 147 129 128 133 141 149 165 172 170 167 163 162 162 160 158 156
166 169 165 168 168 168 158 161 164 163 171 177 182 181 176 174 174 171 174 178 181 182 180 175 177 199 189 177 157 147 143 158 166 173 178 174 171 168 167 167 166 166 163
167 168 168 167 170 166 159 169 170 172 178 181 179 181 175 166 163 169 176 183 193 190 183 176 185 192 175 163 155 150 156 166 174 175 181 179 176 174 174 174 173 173 172
169 166 167 169 174 167 168 173 167 172 174 175 174 176 172 165 162 160 163 176 189 191 186 179 181 174 166 155 149 155 166 168 175 179 183 185 183 182 181 181 181 179 179
168 165 167 170 174 175 173 174 164 167 166 168 169 168 164 161 158 155 155 167 180 182 174 167 164 143 146 147 147 153 162 170 176 184 185 185 187 189 188 186 186 187 188
162 163 169 172 169 171 167 163 155 161 158 160 160 158 157 156 153 147 148 162 165 157 151 143 138 130 126 135 149 167 160 167 176 185 185 186 187 193 197 195 192 194 195
165 165 164 164 163 166 159 150 145 149 148 153 152 150 153 153 152 144 148 156 150 135 134 151 133 137 143 153 163 168 165 160 175 183 187 191 193 197 200 203 202 202 204
163 164 161 164 161 158 151 135 124 121 136 143 145 150 148 146 147 140 139 140 133 122 122 128 127 118 135 155 146 130 167 173 163 183 193 195 200 204 206 207 210 212 213
162 164 164 164 163 156 154 151 145 150 149 151 155 154 150 144 140 134 133 131 127 134 147 141 125 109 101 113 91 56 5 349 205 207 195 190 200 206 207 210 212 214 219
171 172 168 169 164 162 163 157 151 149 152 157 155 149 150 146 145 147 140 135 131 126 124 122 116 111 91 122 127 111 44 341 315 236 204 201 205 205 208 213 213 215 219
174 178 175 172 169 168 160 143 134 123 115 125 144 152 153 150 149 147 142 136 136 134 140 141 132 128 123 75 133 143 147 212 277 308 241 215 205 207 216 217 214 219 222
180 176 170 170 172 169 160 157 158 160 164 174 166 160 153 148 149 149 142 137 135 136 140 144 132 127 125 102 50 94 162 158 156 269 312 266 226 219 218 218 218 222 225
173 173 174 168 170 167 164 164 164 166 165 155 147 148 150 151 152 149 142 133 129 130 136 127 116 112 120 130 124 98 75 74 110 142 240 286 277 247 227 223 218 221 224
163 168 171 171 174 171 169 168 167 166 160 154 156 158 158 155 154 153 142 135 134 133 140 137 127 124 123 120 117 114 127 129 174 160 192 238 252 266 244 234 225 223 224
Height
1517 1520 1522 1524 1525 1526 1528 1529 1530 1532 1533 1534 1535 1536 1538 1539 1540 1541 1542 1543 1543 1544 1545 1545 1546 1546 1547 1547 1548 1548 1549 1550 1551 1551 1552 1553 1554 1555 1556 1557 1557 1558 1559
1514 1519 1522 1524 1525 1527 1528 1530 1531 1533 1534 1535 1536 1537 1539 1540 1541 1542 1543 1544 1544 1545 1546 1546 1547 1547 1548 1548 1549 1550 1551 1551 1552 1553 1554 1555 1556 1557 1558 1558 1559 1560 1561
1515 1518 1522 1524 1526 1528 1529 1531 1532 1534 1535 1536 1537 1538 1539 1541 1542 1543 1543 1544 1545 1546 1546 1547 1548 1548 1549 1550 1550 1551 1552 1553 1554 1555 1556 1557 1558 1559 1560 1560 1561 1562 1563
1515 1518 1521 1524 1526 1528 1530 1531 1533 1534 1536 1537 1538 1539 1540 1541 1543 1543 1544 1545 1546 1547 1548 1548 1549 1550 1550 1551 1552 1553 1554 1555 1556 1557 1558 1559 1560 1561 1561 1562 1563 1564 1565
1515 1519 1521 1524 1526 1528 1530 1532 1533 1535 1537 1538 1539 1540 1541 1542 1543 1544 1545 1546 1547 1548 1549 1549 1550 1551 1552 1553 1554 1555 1556 1557 1558 1559 1560 1561 1561 1562 1563 1564 1565 1566 1567
1515 1519 1521 1524 1526 1528 1530 1532 1534 1536 1537 1539 1540 1541 1543 1544 1545 1546 1547 1548 1549 1549 1550 1551 1552 1553 1554 1555 1556 1557 1558 1558 1559 1560 1561 1562 1563 1564 1565 1566 1567 1568 1569
1515 1519 1521 1524 1526 1528 1530 1532 1534 1536 1538 1539 1541 1542 1544 1545 1546 1547 1548 1549 1550 1551 1552 1553 1553 1555 1556 1557 1558 1558 1559 1560 1561 1562 1563 1564 1565 1566 1567 1567 1568 1569 1570
1514 1518 1521 1524 1526 1528 1531 1533 1535 1537 1538 1540 1542 1543 1545 1546 1547 1548 1549 1550 1551 1552 1553 1554 1555 1556 1557 1558 1559 1560 1560 1561 1562 1563 1564 1565 1566 1567 1568 1569 1570 1571 1572
1514 1518 1521 1524 1526 1528 1531 1533 1535 1537 1539 1541 1542 1544 1545 1547 1548 1549 1550 1552 1553 1554 1555 1556 1557 1558 1559 1560 1561 1561 1562 1563 1563 1564 1565 1566 1567 1568 1569 1570 1571 1572 1573
1514 1517 1520 1523 1525 1528 1530 1533 1535 1537 1539 1541 1543 1544 1546 1548 1549 1550 1552 1553 1554 1555 1556 1557 1558 1559 1560 1561 1562 1562 1563 1564 1565 1566 1567 1568 1568 1569 1570 1571 1572 1573 1574
1514 1516 1519 1522 1525 1527 1530 1532 1535 1537 1539 1541 1543 1545 1547 1548 1550 1551 1552 1553 1554 1556 1557 1558 1559 1560 1561 1562 1563 1564 1565 1565 1566 1567 1568 1569 1570 1570 1571 1572 1573 1574 1575
1511 1515 1518 1521 1524 1527 1529 1532 1535 1537 1539 1541 1543 1545 1547 1549 1550 1552 1553 1554 1555 1556 1558 1559 1560 1561 1562 1563 1564 1565 1565 1566 1567 1568 1569 1569 1570 1571 1572 1573 1574 1575 1576
1508 1513 1517 1520 1523 1525 1528 1531 1534 1537 1539 1541 1543 1545 1547 1549 1551 1552 1553 1554 1556 1557 1558 1560 1561 1562 1563 1564 1565 1565 1566 1567 1567 1568 1569 1570 1571 1572 1573 1574 1575 1576 1577
1507 1511 1515 1519 1522 1525 1527 1530 1533 1536 1538 1541 1543 1545 1547 1549 1550 1552 1553 1555 1556 1557 1559 1560 1561 1562 1563 1564 1565 1566 1566 1567 1568 1569 1570 1571 1572 1572 1573 1574 1575 1576 1577
1505 1509 1513 1517 1520 1523 1526 1530 1533 1536 1538 1541 1543 1545 1547 1549 1550 1552 1553 1555 1556 1557 1559 1560 1561 1562 1563 1564 1565 1566 1566 1567 1568 1569 1570 1571 1571 1573 1574 1575 1576 1577 1578
1503 1507 1511 1515 1519 1522 1525 1529 1532 1535 1538 1540 1543 1544 1547 1549 1550 1552 1553 1554 1556 1557 1558 1560 1561 1562 1563 1564 1565 1566 1566 1567 1568 1569 1570 1571 1571 1573 1574 1575 1576 1577 1578
1501 1504 1509 1513 1517 1521 1524 1528 1531 1534 1537 1539 1542 1544 1546 1548 1550 1551 1553 1554 1555 1557 1558 1559 1560 1561 1562 1563 1564 1565 1566 1567 1568 1569 1570 1571 1571 1572 1574 1575 1575 1576 1577
1501 1503 1507 1511 1515 1519 1523 1527 1530 1533 1536 1538 1541 1543 1546 1547 1549 1551 1552 1553 1555 1556 1557 1558 1560 1561 1562 1563 1564 1565 1566 1567 1567 1569 1570 1571 1571 1572 1573 1574 1575 1576 1577
1499 1502 1506 1509 1512 1516 1521 1526 1529 1532 1534 1537 1540 1542 1545 1547 1548 1550 1551 1553 1554 1555 1556 1557 1559 1560 1561 1562 1563 1564 1565 1566 1567 1568 1569 1570 1571 1572 1573 1573 1574 1575 1576
1498 1501 1503 1507 1511 1515 1519 1524 1527 1531 1533 1536 1538 1541 1543 1545 1547 1549 1551 1552 1553 1554 1555 1557 1558 1560 1561 1562 1563 1564 1565 1566 1567 1567 1568 1569 1570 1571 1572 1573 1573 1574 1575
1496 1498 1501 1505 1509 1513 1517 1521 1524 1528 1532 1534 1537 1539 1542 1544 1546 1548 1549 1551 1552 1553 1555 1556 1557 1559 1560 1561 1563 1564 1565 1565 1566 1566 1567 1568 1569 1570 1571 1571 1572 1573 1573
1495 1497 1500 1503 1507 1511 1515 1519 1523 1527 1530 1534 1536 1538 1541 1543 1545 1546 1548 1550 1551 1552 1554 1555 1557 1558 1559 1561 1562 1563 1564 1566 1565 1565 1566 1567 1568 1569 1569 1570 1571 1571 1572
1494 1496 1498 1502 1505 1509 1513 1517 1521 1525 1529 1532 1534 1537 1539 1541 1543 1545 1547 1548 1550 1551 1553 1554 1556 1557 1558 1560 1561 1563 1563 1563 1564 1565 1565 1566 1567 1567 1568 1569 1569 1570 1570
1491 1494 1496 1500 1504 1507 1511 1515 1518 1522 1525 1529 1532 1535 1537 1540 1542 1544 1546 1547 1549 1550 1552 1553 1555 1556 1558 1559 1560 1561 1563 1563 1563 1563 1565 1565 1566 1566 1567 1567 1568 1568 1569
1491 1492 1495 1498 1502 1505 1508 1512 1517 1520 1524 1528 1531 1534 1536 1538 1541 1543 1544 1546 1548 1549 1551 1552 1554 1555 1557 1558 1560 1561 1561 1562 1563 1563 1563 1564 1564 1565 1565 1566 1566 1566 1567
1490 1491 1494 1496 1500 1503 1506 1510 1514 1518 1521 1525 1528 1531 1534 1537 1539 1541 1543 1545 1547 1548 1550 1552 1553 1555 1556 1558 1559 1560 1561 1561 1562 1562 1562 1562 1563 1563 1564 1564 1564 1565 1565